Change the Weather History Date:

Sunday, January 26, 2014

  Actual Average (KSTL) Record (KSTL)
Temperature  
Mean Temperature 42 °F 32 °F  
Max Temperature 57 °F 41 °F 72 °F (1890)
Min Temperature 26 °F 24 °F -8 °F (1936)
Degree Days  
Heating Degree Days 24 33  
Month to date heating degree days 866  
Since 1 July heating degree days 2631  
Cooling Degree Days 0 0  
Month to date cooling degree days 0  
Year to date cooling degree days 0  
Moisture  
Dew Point 23 °F    
Average Humidity 46    
Maximum Humidity 69    
Minimum Humidity 31    
Precipitation  
Precipitation 0.00 in 0.07 in 2.13 in (1967)
Month to date precipitation 2.03  
Year to date precipitation 2.03  
Snow  
Snow 0.00 in 0.20 in 2.60 in (1961)
Month to date snowfall 4.7  
Since 1 July snowfall 9.8  
Snow Depth -    
Sea Level Pressure  
Sea Level Pressure 29.69 in    
Wind  
Wind Speed 9 mph (WNW)    
Max Wind Speed 29 mph    
Max Gust Speed 41 mph    
Visibility 10 miles    
Events Rain    
T = Trace of Precipitation, MM = Missing Value Source: NWS Daily Summary

Daily Weather History Graph

Daily Weather History Graph

Search for Another Location

Airport or City:

Trip Planner

Search our weather history database for the weather conditions in past years. The results will help you decide how hot, cold, wet, or windy it might be!

Date:

Astronomy

Jan. 26, 2014 Rise Set
Actual Time 7:14 AM CST 5:19 PM CST
Civil Twilight 6:45 AM CST 5:47 PM CST
Nautical Twilight 6:13 AM CST 6:19 PM CST
Astronomical Twilight 5:42 AM CST 6:51 PM CST
Moon 2:51 AM CST (1/26) 1:09 PM CST (1/26)
Length of Visible Light 11h 01m
Length of Day
10h 04m
Waning Crescent, 23% of the Moon is Illuminated
Jan 26
Waning Crescent
Jan 30
New
Feb 6
First Quarter
Feb 14
Full
Feb 22
Last Quarter

Hourly Weather History & Observations

Time (CST) Temp. Windchill Dew Point Humidity Pressure Visibility Wind Dir Wind Speed Gust Speed Precip Events Conditions
12:15 AM 26.6 °F 20.0 °F -0.4 °F 31% 29.88 in 10.0 mi ESE 5.8 mph - N/A   Mostly Cloudy
12:35 AM 26.6 °F 19.1 °F 3.2 °F 37% 29.87 in 10.0 mi SSE 6.9 mph - N/A   Overcast
12:55 AM 26.6 °F 17.5 °F 1.4 °F 34% 29.84 in 10.0 mi SE 9.2 mph - N/A   Mostly Cloudy
1:15 AM 26.6 °F 17.5 °F 1.4 °F 34% 29.81 in 10.0 mi SE 9.2 mph - N/A   Scattered Clouds
1:35 AM 26.6 °F 18.2 °F 1.4 °F 34% 29.79 in 10.0 mi SE 8.1 mph - N/A   Overcast
2:15 AM 26.6 °F 18.2 °F 1.4 °F 34% 29.75 in 10.0 mi SE 8.1 mph - N/A   Overcast
2:35 AM 28.4 °F 19.7 °F 1.4 °F 31% 29.72 in 10.0 mi SE 9.2 mph - N/A   Overcast
2:55 AM 28.4 °F 19.7 °F 1.4 °F 31% 29.70 in 10.0 mi SSE 9.2 mph - N/A   Mostly Cloudy
3:15 AM 30.2 °F 24.3 °F 3.2 °F 32% 29.69 in 10.0 mi SSE 5.8 mph - N/A   Overcast
3:35 AM 32.0 °F 25.6 °F 8.6 °F 38% 29.67 in 10.0 mi SE 6.9 mph - N/A   Mostly Cloudy
3:55 AM 32.0 °F 25.6 °F 8.6 °F 38% 29.66 in 10.0 mi SE 6.9 mph - N/A   Mostly Cloudy
4:15 AM 32.0 °F 25.6 °F 12.2 °F 44% 29.65 in 10.0 mi SSE 6.9 mph - N/A   Overcast
4:35 AM 37.4 °F 29.8 °F 17.6 °F 45% 29.64 in 10.0 mi SSW 11.5 mph 19.6 mph N/A   Mostly Cloudy
4:55 AM 37.4 °F 33.8 °F 19.4 °F 48% 29.63 in 10.0 mi South 4.6 mph - N/A   Partly Cloudy
5:15 AM 37.4 °F 30.8 °F 19.4 °F 48% 29.62 in 10.0 mi SSW 9.2 mph - N/A   Clear
5:35 AM 37.4 °F - 21.2 °F 52% 29.63 in 10.0 mi Calm Calm - N/A   Clear
5:55 AM 37.4 °F 33.8 °F 23.0 °F 56% 29.64 in 10.0 mi WSW 4.6 mph - N/A   Clear
6:15 AM 37.4 °F 34.9 °F 24.8 °F 60% 29.64 in 10.0 mi SW 3.5 mph - N/A   Clear
6:35 AM 37.4 °F - 24.8 °F 60% 29.64 in 10.0 mi Calm Calm - N/A   Clear
6:55 AM 37.4 °F - 24.8 °F 60% 29.64 in 10.0 mi Calm Calm - N/A   Clear
7:15 AM 39.2 °F - 24.8 °F 56% 29.65 in 10.0 mi Calm Calm - N/A   Scattered Clouds
7:35 AM 39.2 °F - 26.6 °F 61% 29.64 in 10.0 mi Calm Calm - N/A   Partly Cloudy
7:55 AM 39.2 °F - 26.6 °F 61% 29.64 in 10.0 mi Calm Calm - N/A   Clear
8:15 AM 39.2 °F - 26.6 °F 61% 29.65 in 10.0 mi Calm Calm - N/A   Clear
8:35 AM 41.0 °F 39.0 °F 28.4 °F 61% 29.65 in 10.0 mi NNW 3.5 mph - N/A   Clear
8:55 AM 44.6 °F 41.4 °F 28.4 °F 53% 29.65 in 10.0 mi West 5.8 mph - N/A   Clear
9:15 AM 48.2 °F - 30.2 °F 50% 29.65 in 10.0 mi West 11.5 mph 18.4 mph N/A   Clear
9:35 AM 48.2 °F - 32.0 °F 54% 29.64 in 10.0 mi West 6.9 mph 17.3 mph N/A   Clear
10:35 AM 51.8 °F - 32.0 °F 47% 29.65 in 10.0 mi West 8.1 mph 18.4 mph N/A   Clear
10:55 AM 53.6 °F - 32.0 °F 44% 29.65 in 10.0 mi WNW 16.1 mph 28.8 mph N/A   Clear
11:35 AM 53.6 °F - 32.0 °F 44% 29.64 in 10.0 mi WNW 18.4 mph 23.0 mph N/A   Clear
11:55 AM 53.6 °F - 32.0 °F 44% 29.63 in 10.0 mi WNW 17.3 mph 26.5 mph N/A   Clear
12:15 PM 53.6 °F - 32.0 °F 44% 29.61 in 10.0 mi WNW 15.0 mph 20.7 mph N/A   Clear
12:35 PM 55.4 °F - 32.0 °F 41% 29.60 in 10.0 mi WNW 13.8 mph 21.9 mph N/A   Clear
1:15 PM 55.4 °F - 32.0 °F 41% 29.58 in 10.0 mi WNW 15.0 mph 20.7 mph N/A   Clear
1:35 PM 55.4 °F - 32.0 °F 41% 29.58 in 10.0 mi WNW 12.7 mph - N/A   Clear
1:55 PM 57.2 °F - 32.0 °F 38% 29.58 in 10.0 mi WNW 15.0 mph - N/A   Clear
2:15 PM 57.2 °F - 32.0 °F 38% 29.58 in 10.0 mi West 11.5 mph 20.7 mph N/A   Clear
2:55 PM 57.2 °F - 32.0 °F 38% 29.58 in 10.0 mi West 12.7 mph 26.5 mph N/A   Clear
3:15 PM 57.2 °F - 32.0 °F 38% 29.58 in 10.0 mi West 15.0 mph 23.0 mph N/A   Clear
3:35 PM 57.2 °F - 32.0 °F 38% 29.59 in 10.0 mi WNW 12.7 mph 20.7 mph N/A   Clear
3:55 PM 55.4 °F - 30.2 °F 38% 29.59 in 10.0 mi West 8.1 mph 18.4 mph N/A   Clear
4:15 PM 55.4 °F - 28.4 °F 36% 29.60 in 10.0 mi West 12.7 mph 18.4 mph N/A   Clear
4:35 PM 55.4 °F - 28.4 °F 36% 29.60 in 10.0 mi WNW 10.4 mph 16.1 mph N/A   Clear
4:55 PM 55.4 °F - 30.2 °F 38% 29.61 in 10.0 mi WNW 10.4 mph 18.4 mph N/A   Clear
5:15 PM 53.6 °F - 28.4 °F 38% 29.63 in 10.0 mi NW 11.5 mph - N/A   Clear
5:35 PM 51.8 °F - 30.2 °F 44% 29.64 in 10.0 mi WNW 10.4 mph - N/A   Clear
5:55 PM 51.8 °F - 30.2 °F 44% 29.65 in 10.0 mi NW 9.2 mph - N/A   Clear
6:15 PM 50.0 °F - 28.4 °F 43% 29.65 in 10.0 mi NW 6.9 mph - N/A   Clear
6:35 PM 50.0 °F - 28.4 °F 43% 29.65 in 10.0 mi WNW 4.6 mph - N/A   Scattered Clouds
7:15 PM 50.0 °F - 28.4 °F 43% 29.66 in 10.0 mi Calm Calm - N/A   Overcast
7:35 PM 50.0 °F - 28.4 °F 43% 29.67 in 10.0 mi NW 4.6 mph - N/A   Mostly Cloudy
7:55 PM 48.2 °F - 28.4 °F 46% 29.68 in 10.0 mi NW 4.6 mph - N/A   Overcast
8:15 PM 50.0 °F - 28.4 °F 43% 29.69 in 10.0 mi NNW 3.5 mph - N/A   Mostly Cloudy
8:35 PM 48.2 °F - 28.4 °F 46% 29.70 in 10.0 mi NW 3.5 mph - N/A   Mostly Cloudy
8:55 PM 48.2 °F - 28.4 °F 46% 29.71 in 10.0 mi NW 4.6 mph - N/A   Mostly Cloudy
9:15 PM 44.6 °F 35.3 °F 28.4 °F 53% 29.78 in 10.0 mi NNW 26.5 mph 38.0 mph N/A   Overcast
9:55 PM 37.4 °F 25.2 °F 23.0 °F 56% 29.87 in 10.0 mi NNW 28.8 mph 41.4 mph N/A   Mostly Cloudy
10:15 PM 35.6 °F 24.2 °F 23.0 °F 60% 29.91 in 10.0 mi NW 21.9 mph 36.8 mph N/A   Mostly Cloudy
10:35 PM 33.8 °F 21.9 °F 23.0 °F 65% 29.94 in 10.0 mi North 21.9 mph 35.7 mph N/A   Overcast
10:55 PM 32.0 °F 19.5 °F 23.0 °F 69% 29.96 in 10.0 mi North 21.9 mph 29.9 mph N/A Rain Light Rain
11:15 PM 30.2 °F 16.2 °F 17.6 °F 60% 29.99 in 10.0 mi North 25.3 mph 33.4 mph N/A Rain Light Freezing Rain
11:35 PM 28.4 °F 14.4 °F 15.8 °F 59% 30.01 in 10.0 mi NNW 23.0 mph 33.4 mph N/A   Overcast
11:55 PM 26.6 °F 12.0 °F 15.8 °F 64% 30.05 in 7.0 mi North 23.0 mph 35.7 mph N/A Rain Light Freezing Rain